UAL129 KIAH-SBGL

Flight info

Callsign UAL129
Flight time N/A
Altitude 29000
Route FLYZA5 KELPP A766 KEHLI UL674 NUDIS/N0495F310 UL674 ATUVI DCT MLY DCT TARBA UA511 PENKO/N0490F330 UA511 GUTIM UL337 POS DCT VOKAV DCT ASASO UL452 TONOM DCT ANRUS/N0483F350 DCT VUMON DCT OPNAX UZ24 MULUV UZ6 GEPMO UZ35 ANBIR UZ24 MAVGU
Aircraft B763/H-SDE3FGHIM3RWXY/LB1

Departure

Time 2025-09-06 04:26
Airport George Bush Intercontinental Airport (KIAH)

Arrival

Time N/A
Airport Rio Galeão – Tom Jobim International Airport (SBGL)
Time Latitude Longitude Altitude Speed Heading
2025-09-06 04:02 29.98987 -95.34191 113 ft 0 kts 129°
2025-09-06 04:15 29.99003 -95.34214 108 ft 3 kts 131°
2025-09-06 04:16 29.99030 -95.34248 108 ft 3 kts 132°
2025-09-06 04:16 29.99045 -95.34279 108 ft 3 kts 69°
2025-09-06 04:17 29.99020 -95.34328 108 ft 3 kts 39°
2025-09-06 04:17 29.98986 -95.34342 108 ft 3 kts 355°
2025-09-06 04:18 29.98947 -95.34337 108 ft 2 kts 360°
2025-09-06 04:18 29.98910 -95.34333 113 ft 3 kts 348°
2025-09-06 04:19 29.98890 -95.34329 113 ft 0 kts 354°
2025-09-06 04:21 29.98911 -95.34335 113 ft 10 kts 345°
2025-09-06 04:21 29.99022 -95.34340 111 ft 20 kts 359°
2025-09-06 04:22 29.99081 -95.34669 111 ft 34 kts 269°
2025-09-06 04:22 29.99089 -95.35205 109 ft 33 kts 270°
2025-09-06 04:23 29.99097 -95.35895 110 ft 29 kts 262°
2025-09-06 04:24 29.98884 -95.35984 113 ft 18 kts 150°
2025-09-06 04:24 29.98772 -95.35921 111 ft 19 kts 151°
2025-09-06 04:24 29.98746 -95.35761 114 ft 7 kts 153°
2025-09-06 04:25 29.98087 -95.35358 109 ft 134 kts 152°
2025-09-06 04:26 29.94657 -95.32249 3388 ft 237 kts 120°
2025-09-06 04:26 29.92690 -95.28692 3951 ft 274 kts 129°
2025-09-06 04:26 29.91344 -95.26926 4891 ft 294 kts 134°
2025-09-06 04:27 29.87395 -95.21792 11154 ft 301 kts 125°
2025-09-06 04:28 29.84887 -95.17516 13704 ft 341 kts 124°
2025-09-06 04:28 29.81789 -95.13045 16273 ft 373 kts 139°
2025-09-06 04:29 29.77572 -95.09140 18661 ft 405 kts 146°
2025-09-06 04:29 29.72541 -95.05813 20883 ft 430 kts 161°
2025-09-06 04:29 29.69698 -95.04608 21957 ft 442 kts 164°
2025-09-06 04:30 29.63723 -95.02335 24254 ft 462 kts 164°
2025-09-06 04:30 29.57591 -94.99661 26426 ft 479 kts 162°
2025-09-06 04:33 29.29590 -94.87846 31015 ft 484 kts 158°
2025-09-06 04:35 29.11401 -94.64475 31004 ft 496 kts 129°